This is the latest recevied weather packets stored in our database for station/object KJ4EBE. If no packets are shown the sender has not sent any weather packets the latest 10 day(s).
| Time | Temp. | Humidity | Pressure | Rain* | Wind** | Luminosity | Snow |
|---|---|---|---|---|---|---|---|
| 1778006177 | 28.89° C | 71% | 1007 hPa | 0 mm | - | 692 W/m² | - |
| 1778005874 | 29.44° C | 72% | 1007.1 hPa | 0 mm | - | 733 W/m² | - |
| 1778005570 | 29.44° C | 69% | 1007.1 hPa | 0 mm | - | 831 W/m² | - |
| 1778005267 | 29.44° C | 70% | 1007.2 hPa | 0 mm | - | 167 W/m² | - |
| 1778004964 | 28.89° C | 70% | 1007 hPa | 0 mm | - | 241 W/m² | - |
| 1778004661 | 28.89° C | 71% | 1007.3 hPa | 0 mm | - | 764 W/m² | - |
| 1778004357 | 28.33° C | 72% | 1007.3 hPa | 0 mm | - | 752 W/m² | - |
| 1778004055 | 28.33° C | 71% | 1007.4 hPa | 0 mm | - | 598 W/m² | - |
| 1778003750 | 28.89° C | 70% | 1007.3 hPa | 0 mm | - | 639 W/m² | - |
| 1778003447 | 28.89° C | 71% | 1007.6 hPa | 0 mm | - | 797 W/m² | - |
| 1778003144 | 28.33° C | 71% | 1007.6 hPa | 0 mm | - | 836 W/m² | - |
| 1778002840 | 27.78° C | 75% | 1007.6 hPa | 0 mm | - | 712 W/m² | - |
| 1778002537 | 28.89° C | 71% | 1007.4 hPa | 0 mm | - | 557 W/m² | - |
| 1778002234 | 28.33° C | 72% | 1007.5 hPa | 0 mm | - | 717 W/m² | - |
| 1778001932 | 27.78° C | 72% | 1007.6 hPa | 0 mm | - | 784 W/m² | - |
| 1778001628 | 28.33° C | 71% | 1007.8 hPa | 0 mm | - | 777 W/m² | - |
| 1778001323 | 28.33° C | 72% | 1007.6 hPa | 0 mm | - | 769 W/m² | - |
| 1778001020 | 27.78° C | 74% | 1007.5 hPa | 0 mm | - | 685 W/m² | - |
| 1778000717 | 27.22° C | 74% | 1007.5 hPa | 0 mm | - | 811 W/m² | - |
| 1778000412 | 27.78° C | 73% | 1007.3 hPa | 0 mm | - | 585 W/m² | - |
| 1778000108 | 27.22° C | 73% | 1007.2 hPa | 0 mm | - | 546 W/m² | - |
| 1777999804 | 27.22° C | 73% | 1007.3 hPa | 0 mm | - | 864 W/m² | - |
| 1777999500 | 26.67° C | 74% | 1007.4 hPa | 0 mm | - | 806 W/m² | - |
| 1777999198 | 27.22° C | 74% | 1007.4 hPa | 0 mm | - | 695 W/m² | - |
| 1777998896 | 26.67° C | 74% | 1007.4 hPa | 0 mm | - | 666 W/m² | - |
* Rain latest hour (hover to see other rain measurements)
** Current wind speed in m/s (hover to see current wind gust speed)